BSAT-3C (JCSAT-110R)

Last updated on Thu Nov 21 2024 00:02:41 GMT+0000 (Coordinated Universal Time)

1 37776U 11041B 24325.50970053 -.00000350 00000+0 00000+0 0 9999 2 37776 0.0304 57.8220 0000421 275.4015 20.2638 1.00271397 44722
UTC large
Height (km)
Speed (km/s)
/
Latitude / Longitude
Inclination (degrees)
Orbital Period (minutes)
Azimuth
Elevation
Range (km)
Doppler Factor

Next 0 passes for location: London (51.5072 / 0.1276)

Sorry there are no passes over London.